Powrót do katalogu

STARLINK-33712

AktywnyŁącznośćVLEO
NORAD 63797·PAYLOAD·🇺🇸 United States

Wystrzelony May 2, 2025 z Cape Canaveral Space Force Station

Loading…

Następne Przeloty (najbliższe 24 godziny)

TLE

ŚwieżeSource: CelesTrak SupGP

Epoka: Sep 14, 2026, 22:28 UTC

1 63797C 25091Y   26257.93659722  .00057039  00000+0  20664-2 0  2574
2 63797  43.0039  67.3988 0001736 275.5780  87.3398 15.27542768    11

Śledź STARLINK-33712 w czasie rzeczywistym z AllMySat

Download on the App Store